Location: Aufkirchen
(47.9603°N, 11.3653°E)
Time: 06:42:24
(UTC+01:00)

Transit 4A - Pass Details

Date: 28 November 2020
Orbit: 864 x 980 km, 66.8° (Epoch: 25 January)

Event Time Altitude Azimuth Distance (km) Brightness Sun altitude
Rises 10:28:49 0° 258° (WSW) 3,651 10.9 17.5°
Reaches altitude 10° 10:31:49 10° 271° (W) 2,719 10.2 17.7°
Maximum altitude 10:37:06 26° 327° (NNW) 1,810 9.1 18.0°
Drops below altitude 10° 10:42:26 10° 23° (NNE) 2,740 10.0 18.3°
Sets 10:45:28 0° 36° (NE) 3,686 10.7 18.5°
